RYS6Z EPKT-LTBS

Flight info

Callsign RYS6Z
Flight time N/A
Altitude 33000
Route REGTO T195 RAZEC DCT KEKED DCT DVA DCT OSTOV DCT RODIP UN131 DUGLA UT350 NEXAM
Aircraft B38M/M-SDE1FGHILORVWXY/HB1

Departure

Time 2026-04-27 11:29
Airport Katowice Wojciech Korfanty International Airport (EPKT)

Arrival

Time N/A
Airport Dalaman International Airport (LTBS)
Time Latitude Longitude Altitude Speed Heading
2026-04-27 11:13 50.47183 19.07344 1001 ft 0 kts 180°
2026-04-27 11:19 50.47192 19.07343 1001 ft 3 kts 180°
2026-04-27 11:19 50.47210 19.07343 1003 ft 3 kts 178°
2026-04-27 11:19 50.47226 19.07338 1001 ft 3 kts 140°
2026-04-27 11:19 50.47235 19.07315 1001 ft 3 kts 98°
2026-04-27 11:20 50.47236 19.07285 1001 ft 2 kts 90°
2026-04-27 11:20 50.47236 19.07274 1001 ft 1 kts 90°
2026-04-27 11:24 50.47236 19.07276 1001 ft 1 kts 90°
2026-04-27 11:24 50.47235 19.07329 1003 ft 10 kts 91°
2026-04-27 11:25 50.47235 19.07504 1005 ft 22 kts 90°
2026-04-27 11:25 50.47234 19.07798 1005 ft 29 kts 90°
2026-04-27 11:25 50.47233 19.08112 1005 ft 29 kts 90°
2026-04-27 11:25 50.47232 19.08429 1004 ft 29 kts 90°
2026-04-27 11:26 50.47232 19.08753 1006 ft 30 kts 90°
2026-04-27 11:26 50.47231 19.09069 1001 ft 29 kts 90°
2026-04-27 11:26 50.47230 19.09361 1004 ft 24 kts 91°
2026-04-27 11:26 50.47230 19.09629 1001 ft 25 kts 90°
2026-04-27 11:27 50.47229 19.09883 1001 ft 23 kts 91°
2026-04-27 11:27 50.47269 19.10088 1001 ft 20 kts 53°
2026-04-27 11:27 50.47355 19.10265 1001 ft 21 kts 52°
2026-04-27 11:27 50.47449 19.10431 1001 ft 17 kts 28°
2026-04-27 11:28 50.47562 19.10433 1000 ft 15 kts 348°
2026-04-27 11:28 50.47597 19.10362 1002 ft 7 kts 268°
2026-04-27 11:28 50.47596 19.10336 1000 ft 0 kts 269°
2026-04-27 11:28 50.47596 19.10305 1001 ft 8 kts 269°
2026-04-27 11:29 50.47596 19.10050 1003 ft 51 kts 270°
2026-04-27 11:29 50.47598 19.09194 1004 ft 95 kts 270°
2026-04-27 11:29 50.47602 19.07769 1012 ft 161 kts 274°
2026-04-27 11:29 50.47593 19.05876 1640 ft 182 kts 272°
2026-04-27 11:30 50.47599 19.03885 2782 ft 181 kts 272°
2026-04-27 11:30 50.47617 19.01836 3621 ft 201 kts 272°
2026-04-27 11:30 50.47621 18.99494 4279 ft 226 kts 272°
2026-04-27 11:30 50.47544 18.96959 5190 ft 239 kts 263°
2026-04-27 11:31 50.46969 18.94496 6269 ft 244 kts 236°
2026-04-27 11:31 50.45619 18.92821 7139 ft 263 kts 206°
2026-04-27 11:31 50.43740 18.92425 7864 ft 282 kts 176°
2026-04-27 11:31 50.41774 18.93010 8775 ft 291 kts 169°
2026-04-27 11:32 50.39768 18.93590 9705 ft 296 kts 178°
2026-04-27 11:32 50.37683 18.93689 10524 ft 301 kts 182°
2026-04-27 11:32 50.35551 18.93714 11198 ft 314 kts 183°
2026-04-27 11:32 50.33327 18.93728 11687 ft 331 kts 181°
2026-04-27 11:33 50.30972 18.94464 12086 ft 355 kts 159°
2026-04-27 11:33 50.28876 18.96627 12657 ft 370 kts 135°
2026-04-27 11:33 50.27391 18.99944 13235 ft 379 kts 112°
2026-04-27 11:33 50.26355 19.03730 14073 ft 381 kts 113°
2026-04-27 11:34 50.25263 19.07488 14605 ft 390 kts 113°
2026-04-27 11:34 50.24126 19.11365 15361 ft 391 kts 113°
2026-04-27 11:34 50.22966 19.15302 15969 ft 398 kts 113°
2026-04-27 11:34 50.21800 19.19248 16585 ft 401 kts 113°
2026-04-27 11:35 50.20655 19.23113 17243 ft 405 kts 113°
2026-04-27 11:35 50.19454 19.27168 17707 ft 413 kts 113°
2026-04-27 11:35 50.18023 19.31229 18465 ft 413 kts 120°
2026-04-27 11:35 50.16547 19.35070 18995 ft 418 kts 120°
2026-04-27 11:36 50.15044 19.39044 19402 ft 424 kts 119°
2026-04-27 11:36 50.13557 19.43002 20042 ft 424 kts 119°
2026-04-27 11:36 50.12055 19.47011 20487 ft 431 kts 119°
2026-04-27 11:36 50.10536 19.51058 20981 ft 433 kts 119°
2026-04-27 11:37 50.08959 19.55250 21575 ft 436 kts 120°
2026-04-27 11:37 50.07396 19.59370 21950 ft 442 kts 119°
2026-04-27 11:37 50.05655 19.63308 22525 ft 443 kts 133°
2026-04-27 11:37 50.03369 19.66440 22974 ft 446 kts 143°
2026-04-27 11:38 50.00908 19.69457 23385 ft 451 kts 143°
2026-04-27 11:38 49.98430 19.72455 23880 ft 453 kts 143°
2026-04-27 11:38 49.95929 19.75450 24261 ft 456 kts 143°
2026-04-27 11:38 49.93412 19.78446 24674 ft 458 kts 143°
2026-04-27 11:39 49.90896 19.81435 25083 ft 460 kts 143°
2026-04-27 11:39 49.88314 19.84497 25470 ft 463 kts 143°
2026-04-27 11:39 49.85740 19.87546 25852 ft 465 kts 143°
2026-04-27 11:39 49.83176 19.90578 26239 ft 467 kts 144°
2026-04-27 11:40 49.80572 19.93655 26630 ft 470 kts 144°
2026-04-27 11:40 49.77982 19.96709 26975 ft 472 kts 144°
2026-04-27 11:40 49.75369 19.99787 27362 ft 474 kts 144°
2026-04-27 11:40 49.72739 20.02881 27731 ft 476 kts 144°
2026-04-27 11:41 49.70242 20.06267 28040 ft 479 kts 130°
2026-04-27 11:41 49.68195 20.10337 28465 ft 479 kts 127°
2026-04-27 11:41 49.66146 20.14444 28713 ft 484 kts 127°
2026-04-27 11:41 49.64106 20.18570 29060 ft 485 kts 127°
2026-04-27 11:42 49.62072 20.22701 29475 ft 486 kts 127°
2026-04-27 11:42 49.60012 20.26883 29676 ft 490 kts 127°
2026-04-27 11:42 49.57938 20.31087 30084 ft 490 kts 127°
2026-04-27 11:42 49.55878 20.35257 30363 ft 492 kts 127°
2026-04-27 11:43 49.53805 20.39450 30578 ft 495 kts 127°
2026-04-27 11:43 49.51717 20.43666 30896 ft 496 kts 127°
2026-04-27 11:43 49.49623 20.47885 31122 ft 498 kts 127°
2026-04-27 11:43 49.47515 20.52128 31354 ft 500 kts 127°
2026-04-27 11:44 49.45397 20.56380 31653 ft 501 kts 127°
2026-04-27 11:44 49.43267 20.60655 31950 ft 502 kts 127°
2026-04-27 11:44 49.42544 20.62105 32068 ft 501 kts 128°
2026-04-27 11:46 49.24439 20.90290 33198 ft 498 kts 137°
2026-04-27 11:46 49.19440 20.97720 33198 ft 498 kts 137°
2026-04-27 11:47 49.14495 21.05016 33194 ft 497 kts 140°
2026-04-27 11:47 49.11704 21.08075 33184 ft 491 kts 156°
2026-04-27 11:47 49.08529 21.09888 33208 ft 484 kts 169°
2026-04-27 11:48 49.01979 21.12323 33198 ft 486 kts 170°
2026-04-27 11:48 48.95388 21.14621 33201 ft 485 kts 171°
2026-04-27 11:49 48.88798 21.16862 33210 ft 485 kts 171°
2026-04-27 11:49 48.82209 21.19092 33205 ft 485 kts 171°
2026-04-27 11:50 48.75660 21.21303 33208 ft 484 kts 171°
2026-04-27 11:50 48.69076 21.23519 33206 ft 484 kts 171°
2026-04-27 11:51 48.62971 21.25570 33208 ft 484 kts 171°
2026-04-27 11:52 48.61627 21.26020 33207 ft 484 kts 171°
2026-04-27 11:52 48.55055 21.28221 33211 ft 484 kts 171°
2026-04-27 11:53 48.48662 21.31553 33213 ft 489 kts 159°
2026-04-27 11:53 48.42433 21.35624 33218 ft 490 kts 159°
2026-04-27 11:54 48.36182 21.39714 33222 ft 490 kts 159°
2026-04-27 11:54 48.29920 21.43801 33223 ft 490 kts 159°
2026-04-27 11:55 48.23700 21.47850 33240 ft 489 kts 159°
2026-04-27 11:55 48.17441 21.51914 33245 ft 488 kts 159°
2026-04-27 11:56 48.11212 21.55947 33253 ft 488 kts 159°
2026-04-27 11:56 48.04972 21.59977 33265 ft 488 kts 159°
2026-04-27 11:57 47.98735 21.63994 33249 ft 488 kts 159°
2026-04-27 11:57 47.92508 21.67995 33257 ft 487 kts 159°
2026-04-27 11:58 47.86317 21.71961 33259 ft 487 kts 159°
2026-04-27 11:58 47.80109 21.75928 33249 ft 486 kts 159°
2026-04-27 11:59 47.73878 21.79900 33246 ft 486 kts 160°
2026-04-27 11:59 47.67666 21.83848 33247 ft 486 kts 160°
2026-04-27 12:00 47.61489 21.87765 33246 ft 485 kts 160°
2026-04-27 12:00 47.55252 21.91709 33249 ft 485 kts 160°
2026-04-27 12:01 47.49047 21.95623 33248 ft 485 kts 160°
2026-04-27 12:01 47.42839 21.99528 33244 ft 484 kts 160°
2026-04-27 12:02 47.36663 22.03405 33237 ft 483 kts 160°
2026-04-27 12:02 47.30486 22.07272 33236 ft 483 kts 160°
2026-04-27 12:03 47.24284 22.11143 33235 ft 483 kts 160°
2026-04-27 12:03 47.18113 22.14987 33236 ft 482 kts 160°
2026-04-27 12:04 47.11924 22.18831 33234 ft 482 kts 160°
2026-04-27 12:04 47.05753 22.22655 33232 ft 481 kts 160°
2026-04-27 12:05 46.99595 22.26461 33234 ft 481 kts 160°
2026-04-27 12:05 46.93418 22.30269 33230 ft 480 kts 160°
2026-04-27 12:06 46.87299 22.34033 33227 ft 480 kts 160°
2026-04-27 12:06 46.81149 22.37805 33220 ft 480 kts 160°
2026-04-27 12:07 46.74994 22.41571 33222 ft 480 kts 160°
2026-04-27 12:07 46.68832 22.45332 33219 ft 480 kts 160°
2026-04-27 12:08 46.62668 22.49086 33217 ft 480 kts 160°
2026-04-27 12:08 46.56532 22.52812 33216 ft 480 kts 161°
2026-04-27 12:09 46.50374 22.56544 33213 ft 480 kts 161°
2026-04-27 12:09 46.44207 22.60270 33210 ft 479 kts 161°
2026-04-27 12:10 46.38057 22.63979 33208 ft 479 kts 161°
2026-04-27 12:10 46.31899 22.67682 33205 ft 479 kts 161°
2026-04-27 12:11 46.25729 22.71383 33205 ft 479 kts 161°
2026-04-27 12:11 46.19580 22.75064 33200 ft 479 kts 161°
2026-04-27 12:12 46.13469 22.78712 33195 ft 478 kts 161°
2026-04-27 12:12 46.07269 22.82407 33206 ft 478 kts 161°
2026-04-27 12:13 46.01180 22.86027 33205 ft 478 kts 161°
2026-04-27 12:13 45.95033 22.89671 33199 ft 477 kts 162°
2026-04-27 12:14 45.88895 22.93303 33201 ft 477 kts 162°
2026-04-27 12:14 45.82733 22.96872 33193 ft 474 kts 166°
2026-04-27 12:15 45.76421 22.99576 33195 ft 473 kts 168°
2026-04-27 12:15 45.70135 23.02221 33195 ft 473 kts 168°
2026-04-27 12:16 45.63819 23.04870 33196 ft 473 kts 168°
2026-04-27 12:16 45.57507 23.07511 33142 ft 473 kts 168°
2026-04-27 12:17 45.51175 23.10154 33196 ft 473 kts 168°
2026-04-27 12:17 45.44856 23.12785 33206 ft 473 kts 168°
2026-04-27 12:18 45.38552 23.15404 33206 ft 472 kts 168°
2026-04-27 12:18 45.33298 23.17583 33220 ft 473 kts 168°
2026-04-27 12:19 45.26985 23.20195 33213 ft 472 kts 168°
2026-04-27 12:19 45.20677 23.22797 33221 ft 472 kts 168°
2026-04-27 12:20 45.14378 23.25391 33231 ft 471 kts 168°
2026-04-27 12:20 45.08078 23.27980 33229 ft 471 kts 169°
2026-04-27 12:21 45.01777 23.30562 33234 ft 471 kts 169°
2026-04-27 12:21 44.95482 23.33137 33241 ft 471 kts 169°
2026-04-27 12:22 44.89239 23.35684 33236 ft 470 kts 169°
2026-04-27 12:22 44.82949 23.38245 33236 ft 470 kts 169°
2026-04-27 12:23 44.76663 23.40799 33238 ft 470 kts 169°
2026-04-27 12:23 44.70376 23.43346 33238 ft 470 kts 168°
2026-04-27 12:24 44.64078 23.45893 33241 ft 470 kts 168°
2026-04-27 12:24 44.57783 23.48431 33245 ft 470 kts 168°
2026-04-27 12:25 44.51543 23.50944 33241 ft 469 kts 168°
2026-04-27 12:25 44.45250 23.53471 33248 ft 470 kts 168°
2026-04-27 12:26 44.38966 23.55989 33256 ft 470 kts 168°
2026-04-27 12:26 44.32682 23.58501 33253 ft 470 kts 168°
2026-04-27 12:27 44.26397 23.61009 33255 ft 469 kts 168°
2026-04-27 12:27 44.20097 23.63516 33252 ft 469 kts 168°
2026-04-27 12:28 44.13858 23.65995 33245 ft 469 kts 168°
2026-04-27 12:28 44.07580 23.68482 33246 ft 469 kts 168°
2026-04-27 12:29 44.01309 23.70962 33238 ft 469 kts 168°
2026-04-27 12:29 43.95010 23.73447 33232 ft 468 kts 168°
2026-04-27 12:30 43.88747 23.75915 33229 ft 468 kts 168°
2026-04-27 12:30 43.82471 23.78381 33233 ft 468 kts 168°
2026-04-27 12:31 43.76327 23.81327 33248 ft 472 kts 156°
2026-04-27 12:31 43.70411 23.85323 33240 ft 473 kts 157°
2026-04-27 12:32 43.64531 23.89260 33230 ft 472 kts 157°
2026-04-27 12:32 43.58609 23.93218 33226 ft 472 kts 157°
2026-04-27 12:33 43.52705 23.97156 33222 ft 472 kts 157°
2026-04-27 12:33 43.46782 24.01098 33227 ft 472 kts 157°